Weather History for KFFO - September, 2013

Change the Weather History Date:

Tuesday, September 10, 2013

  Actual Average Record
Temperature  
Mean Temperature 84 °F -  
Max Temperature 95 °F 77 °F 95 °F (2013)
Min Temperature 73 °F 54 °F 41 °F (1998)
Cooling Degree Days 18    
Growing Degree Days 34 (Base 50)    
Moisture  
Dew Point 72 °F    
Average Humidity 68    
Maximum Humidity 87    
Minimum Humidity 46    
Precipitation  
Precipitation 0.00 in - - ()
Sea Level Pressure  
Sea Level Pressure 30.09 in    
Wind  
Wind Speed 8 mph (SSW)    
Max Wind Speed 15 mph    
Max Gust Speed 16 mph    
Visibility 10 miles    
Events Rain , Thunderstorm    
Averages and records for this station are not official NWS values.
T = Trace of Precipitation, MM = Missing Value Source: NWS Daily Summary

Daily Weather History Graph

Daily Weather History Graph

Search for Another Location

Airport or City:

Trip Planner

Search our weather history database for the weather conditions in past years. The results will help you decide how hot, cold, wet, or windy it might be!

Date:

Astronomy

Sep. 10, 2013 Rise Set
Actual Time 7:12 AM EDT 7:52 PM EDT
Civil Twilight 6:45 AM EDT 8:19 PM EDT
Nautical Twilight 6:13 AM EDT 8:51 PM EDT
Astronomical Twilight 5:40 AM EDT 9:25 PM EDT
Moon 12:36 PM EDT (9/10) 10:55 PM EDT (9/10)
Length of Visible Light 13h 34m
Length of Day
12h 39m
Waxing Crescent, 28% of the Moon is Illuminated
Sep 10
Waxing Crescent
Sep 12
First Quarter
Sep 19
Full
Sep 26
Last Quarter
Oct 4
New

Hourly Weather History & Observations

Time (EDT) Temp. Heat Index Dew Point Humidity Pressure Visibility Wind Dir Wind Speed Gust Speed Precip Events Conditions
12:58 AM 75.6 °F - 69.1 °F 80% 30.02 in 10.0 mi ESE 5.8 mph - N/A   Clear
1:58 AM 74.8 °F - 68.9 °F 82% 30.03 in 10.0 mi Variable 2.3 mph - N/A   Clear
2:58 AM 74.5 °F - 68.7 °F 82% 30.04 in 10.0 mi SSE 3.5 mph - N/A   Clear
3:58 AM 73.9 °F - 69.1 °F 85% 30.04 in 10.0 mi SSE 4.6 mph - N/A   Clear
4:58 AM 74.1 °F - 69.4 °F 85% 30.06 in 10.0 mi SE 5.8 mph - N/A   Mostly Cloudy
5:58 AM 74.5 °F - 69.4 °F 84% 30.07 in 10.0 mi SE 4.6 mph - N/A   Scattered Clouds
6:58 AM 73.8 °F - 69.6 °F 87% 30.09 in 10.0 mi SE 4.6 mph - N/A   Partly Cloudy
7:58 AM 74.3 °F - 70.0 °F 86% 30.10 in 10.0 mi SE 5.8 mph - N/A   Scattered Clouds
8:58 AM 79.2 °F - 71.4 °F 77% 30.11 in 10.0 mi SSW 5.8 mph - N/A   Clear
9:58 AM 82.2 °F 87.3 °F 72.3 °F 72% 30.12 in 10.0 mi SW 10.4 mph - N/A   Clear
10:21 AM 84.2 °F 90.9 °F 73.4 °F 70% 30.13 in 10.0 mi SSW 10.4 mph - N/A   Light Drizzle
10:30 AM 84.2 °F 90.9 °F 73.4 °F 70% 30.13 in 10.0 mi SSW 12.7 mph - N/A   Clear
10:58 AM 85.8 °F 93.0 °F 73.2 °F 66% 30.12 in 10.0 mi SW 9.2 mph - 0.00 in   Clear
11:58 AM 88.7 °F 96.7 °F 73.2 °F 60% 30.11 in 10.0 mi SW 11.5 mph - N/A   Clear
12:58 PM 91.6 °F 100.5 °F 73.2 °F 55% 30.10 in 10.0 mi SSW 11.5 mph - N/A   Clear
1:33 PM 93.2 °F 102.4 °F 73.4 °F 52% 30.11 in 10.0 mi SW 8.1 mph - N/A Rain Light Rain
1:42 PM 93.2 °F 102.4 °F 73.4 °F 52% 30.11 in 10.0 mi SSW 10.4 mph - N/A   Clear
1:58 PM 92.7 °F 101.7 °F 73.0 °F 53% 30.10 in 10.0 mi South 10.4 mph - 0.00 in   Clear
2:58 PM 94.6 °F 103.0 °F 72.1 °F 48% 30.08 in 10.0 mi SW 6.9 mph 16.1 mph N/A   Clear
3:58 PM 94.1 °F 100.6 °F 70.7 °F 46% 30.07 in 10.0 mi SW 10.4 mph - N/A   Partly Cloudy
4:58 PM 93.2 °F 101.1 °F 71.8 °F 50% 30.06 in 10.0 mi SSW 12.7 mph - N/A   Clear
5:29 PM 91.4 °F 100.1 °F 73.4 °F 55% 30.07 in 8.0 mi SSW 13.8 mph - N/A Rain Rain
5:36 PM 87.8 °F 97.6 °F 75.2 °F 66% 30.07 in 7.0 mi SSW 11.5 mph - N/A Rain , Thunderstorm Light Rain Showers
5:40 PM 87.8 °F 95.6 °F 73.4 °F 62% 30.07 in 10.0 mi SSW 15.0 mph - N/A Rain , Thunderstorm Light Thunderstorms and Rain
5:50 PM 87.8 °F 95.6 °F 73.4 °F 62% 30.07 in 10.0 mi SSW 15.0 mph - N/A Thunderstorm Thunderstorm
5:58 PM 89.1 °F 97.5 °F 73.8 °F 60% 30.06 in 9.0 mi SW 15.0 mph - 0.00 in Rain , Thunderstorm Light Thunderstorms and Rain
6:12 PM 87.8 °F 97.6 °F 75.2 °F 66% 30.07 in 10.0 mi SSW 12.7 mph - N/A Thunderstorm Thunderstorm
6:41 PM 87.8 °F 95.6 °F 73.4 °F 62% 30.08 in 10.0 mi SSW 12.7 mph - N/A Thunderstorm Clear
6:59 PM 86.4 °F 94.2 °F 73.9 °F 66% 30.08 in 10.0 mi SW 9.2 mph - 0.00 in   Scattered Clouds
7:58 PM 83.3 °F 88.7 °F 72.3 °F 69% 30.09 in 10.0 mi SSW 6.9 mph - N/A   Clear
8:58 PM 80.1 °F 84.0 °F 72.3 °F 77% 30.12 in 10.0 mi SSW 6.9 mph - N/A   Clear
9:58 PM 78.6 °F - 71.2 °F 78% 30.12 in 10.0 mi SSW 4.6 mph - N/A   Clear
10:58 PM 77.5 °F - 70.7 °F 79% 30.13 in 10.0 mi SSW 6.9 mph - N/A   Clear
11:58 PM 76.6 °F - 70.5 °F 81% 30.13 in 10.0 mi South 5.8 mph - N/A   Clear